PST,Max TemperatureF,Mean TemperatureF,Min TemperatureF,Max Dew PointF,MeanDew PointF,Min DewpointF,Max Humidity, Mean Humidity, Min Humidity, Max Sea Level PressureIn, Mean Sea Level PressureIn, Min Sea Level PressureIn, Max VisibilityMiles, Mean VisibilityMiles, Min VisibilityMiles, Max Wind SpeedMPH, Mean Wind SpeedMPH, Max Gust SpeedMPH,PrecipitationIn, CloudCover, Events, WindDirDegrees
2013-2-1,69,55,41,47,43,39,89,66,42,30.24,30.20,30.13,10,9,5,10,1,14,0.00,0,,333
2013-2-2,56,52,47,49,47,44,93,85,77,30.32,30.27,30.24,10,6,3,8,2,10,0.00,5,,328
2013-2-3,58,51,44,47,43,41,86,74,61,30.28,30.24,30.17,10,10,8,18,3,28,0.00,3,,324
2013-2-4,55,48,41,48,45,39,100,89,77,30.22,30.16,30.10,10,6,1,8,2,10,0.00,5,,315
2013-2-5,57,50,43,45,44,41,93,78,62,30.19,30.13,30.10,10,10,8,14,4,20,0.00,6,,312
2013-2-6,58,49,39,45,40,36,92,75,57,30.22,30.19,30.15,10,10,10,17,3,20,0.00,0,,320
2013-2-7,56,47,38,44,39,34,85,64,43,30.21,30.13,30.03,10,9,2,13,5,17,0.05,5,Rain,191
2013-2-8,54,47,40,42,39,35,100,77,54,30.04,30.00,29.97,10,10,7,17,4,20,0.03,4,Rain,309
2013-2-9,58,46,34,40,32,23,92,60,27,30.12,30.07,30.02,10,10,10,10,2,15,0.00,0,,341
2013-2-10,62,49,35,44,35,30,86,61,36,30.15,30.10,30.04,10,10,10,10,2,17,0.00,0,,350
2013-2-11,64,50,36,46,34,25,85,54,23,30.26,30.18,30.10,10,10,10,10,2,29,0.00,0,,3
2013-2-12,61,49,37,46,39,32,83,61,39,30.38,30.33,30.27,10,10,10,9,3,13,0.00,0,,325
2013-2-13,63,51,39,47,42,36,86,66,46,30.37,30.31,30.25,10,10,8,10,2,14,0.00,0,,344
2013-2-14,69,55,41,44,41,38,100,68,35,30.27,30.23,30.17,10,7,0,12,2,16,0.00,1,Fog,321
2013-2-15,72,57,42,47,42,38,89,63,37,30.29,30.25,30.22,10,10,10,9,2,10,0.00,0,,347
2013-2-16,69,57,44,50,45,40,93,71,48,30.25,30.16,30.08,10,10,9,10,3,43,0.00,0,,349
2013-2-17,64,56,47,47,46,43,100,74,48,30.09,30.05,29.99,10,10,6,14,3,22,0.00,3,,7
2013-2-18,54,49,43,44,40,36,89,70,50,30.08,30.04,30.01,10,10,7,13,3,18,0.00,7,,252
2013-2-19,52,47,42,47,40,35,100,81,61,30.01,29.87,29.79,10,8,2,18,6,28,0.34,6,Rain,263
2013-2-20,59,48,37,40,37,32,85,68,51,30.10,30.00,29.89,10,10,10,16,4,,0.00,0,,331
2013-2-21,60,50,39,40,36,31,92,64,36,30.20,30.14,30.09,10,10,10,14,5,17,0.00,0,,295
2013-2-22,61,49,37,44,38,32,82,61,39,30.28,30.24,30.20,10,10,10,16,4,21,0.00,0,,357
2013-2-23,58,53,47,46,40,35,80,62,43,30.29,30.23,30.18,10,10,8,18,7,25,T,3,,294
2013-2-24,63,54,44,43,31,23,76,50,23,30.29,30.24,30.19,10,10,10,10,4,14,0.00,0,,315
2013-2-25,62,50,37,46,39,32,85,68,51,30.30,30.26,30.20,10,10,10,17,4,21,0.00,0,,344
2013-2-26,67,53,39,44,37,29,92,59,26,30.24,30.21,30.15,10,10,10,13,4,16,0.00,0,,333
2013-2-27,66,53,39,47,39,32,83,57,31,30.41,30.32,30.25,10,10,10,13,4,15,0.00,0,,349
2013-2-28,64,54,44,52,48,42,96,76,56,30.48,30.44,30.40,10,10,10,16,5,20,0.00,0,,344